Tracking 27086 objects as of 23-Mar-2023
HD Live streaming from Space Station
objects crossing your sky now

OBJECT B

Track OBJECT B now!
10-day predictions


NORAD ID: 55134
Int'l Code: 2023-003B
Perigee: 495.5 km
Apogee: 514.2 km
Inclination: 97.3 °
Period: 94.6 minutes
Semi major axis: 6875 km
RCS: Unknown
Launch date: January 9, 2023
Source: People's Republic of China (PRC)
Launch site: Jiuquan Satellite Launch Center, China (JSC)
Your satellite tracking list
Your tracking list is empty




NASA's NSSDC Master Catalog

Two Line Element Set (TLE):
1 55134U 23003B   23081.81048197  .00011203  00000-0  48203-3 0  9995
2 55134  97.2630 169.4356 0013620  40.7293 107.6142 15.22701894 11022
Source of the keplerian elements: AFSPC